Location: Caltech
(34.1382°N, 118.1253°W)
Time: 02:01:12
(UTC-07:00)

Iridium 14 - Visible Passes

Search period start: 30 April 2016 00:00
Search period end: 10 May 2016 00:00
Orbit: 776 x 779 km, 86.4° (Epoch: 29 April)

Date Brightness Start Highest point End Pass type
(mag) Time Alt. Az. Time Alt. Az. Time Alt. Az.
30 Apr 8.8 01:31:43 10° NW 01:31:50 10° NW 01:31:50 10° NW visible
30 Apr 8.7 23:17:48 10° NE 23:18:00 11° NE 23:18:00 11° NE visible
01 May 8.6 00:57:23 10° NNW 00:58:29 16° NNW 00:58:29 16° NNW visible
02 May 8.4 00:23:35 10° N 00:25:08 20° N 00:25:08 20° N visible
02 May 8.3 23:50:11 10° N 23:51:47 20° NNE 23:51:47 20° NNE visible
03 May 8.3 23:17:13 10° NNE 23:18:27 16° NNE 23:18:27 16° NNE visible
04 May 8.6 00:57:53 10° NNW 00:58:55 15° NW 00:58:55 15° NW visible
04 May 8.6 22:45:07 10° NE 22:45:07 10° NE 22:45:07 10° NE visible
05 May 8.2 00:23:49 10° NNW 00:25:36 21° NNW 00:25:36 21° NNW visible
05 May 8.0 23:50:10 10° N 23:52:16 25° N 23:52:16 25° N visible
06 May 8.0 23:16:55 10° NNE 23:18:57 22° NNE 23:18:57 22° NNE visible
07 May 8.7 00:58:41 10° NW 00:59:25 13° NW 00:59:25 13° NW visible
07 May 8.2 22:44:12 10° NNE 22:45:38 15° NE 22:45:38 15° NE visible
08 May 8.2 00:24:10 10° NNW 00:26:06 21° NW 00:26:06 21° NW visible
08 May 7.8 23:50:17 10° N 23:52:48 29° NNW 23:52:48 29° NNW visible
09 May 7.6 23:16:48 10° N 23:19:30 30° NNE 23:19:30 30° NNE visible
